Probability
1 1 1 1 1 1 0 0 0 0 0 0 0 0 0 0 0 0 0 0 0 0 0 0 0 0 0 0 0 0 0 0 0 0 0 0 1 2 1 0 0 1 3
1 1 1 2 2 1 0 0 0 0 0 0 0 0 0 0 0 0 0 0 0 0 0 0 0 0 0 0 0 0 0 0 0 0 0 0 1 2 2 1 1 2 3
0 0 1 1 1 1 0 0 0 0 0 0 0 0 0 0 0 0 0 0 0 0 0 0 0 0 0 0 0 0 0 0 0 0 0 0 0 1 2 2 2 3 3
1 0 0 0 1 0 0 0 0 0 0 0 0 0 0 0 0 0 0 0 0 0 0 0 0 0 0 0 0 0 0 0 0 0 0 0 0 0 1 1 2 3 3
1 0 0 0 0 0 0 0 1 1 1 1 0 0 0 0 0 0 0 0 0 0 0 0 0 0 0 0 0 0 0 0 0 0 0 0 0 0 0 1 2 3 3
1 1 0 0 0 0 0 0 1 1 2 2 1 0 0 0 0 0 0 0 0 0 0 0 0 0 0 1 1 0 0 0 0 0 0 0 1 1 1 1 2 3 3
1 1 0 0 0 0 0 0 0 1 2 2 1 0 0 0 0 0 0 0 0 0 0 0 0 0 0 1 2 1 1 0 1 1 1 0 1 2 2 2 3 3 3
0 0 0 0 0 0 0 0 0 1 1 1 1 1 0 0 1 1 0 0 0 0 0 0 0 0 0 1 2 2 2 1 2 2 1 0 1 2 3 3 3 3 3
0 0 0 0 0 0 0 0 0 0 1 1 2 2 1 1 2 3 1 0 0 0 0 0 0 1 1 1 2 3 3 2 2 2 1 0 1 3 3 3 3 3 3
0 0 0 0 0 0 0 0 0 0 1 2 3 3 3 2 3 3 2 1 0 0 0 0 2 3 3 3 3 3 3 2 1 1 1 1 2 3 3 3 3 3 3
0 0 0 0 0 0 0 0 0 0 1 2 3 3 3 3 2 1 1 1 0 0 1 2 4 5 4 3 2 1 1 1 0 0 1 2 3 3 3 3 3 3 4
0 0 0 0 0 0 0 0 0 0 1 2 3 3 3 3 2 1 0 0 0 0 2 4 4 4 3 2 1 0 0 0 0 0 1 2 3 3 2 3 3 4 5
0 0 0 0 0 0 0 0 0 0 0 1 1 3 3 4 3 1 0 0 0 0 2 3 3 2 1 1 1 0 0 0 0 1 1 1 2 1 1 1 2 3 3
0 0 0 0 0 0 0 0 0 0 0 0 1 2 4 5 4 3 1 1 0 0 1 1 1 0 0 0 0 0 0 1 1 1 2 1 0 0 0 0 1 1 1
0 0 0 0 0 0 0 0 0 0 0 0 0 1 3 4 4 3 3 2 1 0 1 1 0 0 0 0 0 0 0 0 0 1 1 1 0 0 0 0 0 0 0
0 0 0 0 0 0 0 0 0 0 0 0 0 1 2 2 3 3 3 3 1 1 1 1 0 0 0 0 0 0 0 0 0 0 0 0 0 0 0 0 0 0 0
0 0 0 0 0 1 1 1 1 0 0 0 0 1 1 2 3 4 4 3 1 1 1 0 0 0 0 0 0 0 0 0 0 0 0 0 0 0 0 0 0 0 0
0 0 0 1 1 2 2 2 2 1 1 1 1 1 2 3 4 5 4 3 1 1 0 0 0 0 0 0 0 0 0 0 0 0 0 0 1 1 0 0 0 0 0
0 1 1 2 3 3 3 3 3 3 2 2 2 2 2 3 3 4 4 3 2 1 1 1 0 0 0 0 0 0 0 1 0 0 0 1 2 2 1 1 1 1 0
1 2 4 4 4 4 4 3 3 4 4 3 2 2 1 1 1 2 3 3 3 3 2 1 0 0 0 0 0 0 1 1 0 0 0 1 2 2 2 3 3 3 2
2 4 6 7 6 6 5 4 4 5 5 3 1 1 0 0 0 1 2 3 4 5 4 2 1 0 0 0 0 0 1 0 0 0 0 1 2 3 3 4 5 6 5
3 4 6 9 9 8 6 5 5 6 6 3 1 0 0 0 0 0 1 1 3 5 5 4 2 1 0 0 0 0 0 0 0 0 0 1 1 3 4 4 6 8 9
4 5 6 10 11 10 7 6 6 7 6 4 1 0 0 1 1 1 1 1 2 4 4 4 3 1 0 0 0 0 0 1 1 0 0 0 1 2 3 2 5 9 11
6 6 8 10 12 11 9 7 7 8 8 5 2 0 1 2 2 2 2 1 2 3 3 3 2 1 1 2 2 2 2 3 3 2 1 1 1 2 2 2 4 7 9
7 8 9 12 14 14 12 11 11 12 10 7 4 2 1 2 2 2 1 2 2 3 3 3 3 3 4 4 4 5 5 5 5 5 4 3 3 4 4 4 4 5 5
7 8 10 12 16 17 14 13 15 15 13 9 6 3 1 1 1 1 1 1 1 2 3 4 5 5 6 6 6 6 6 6 6 6 6 5 4 5 6 6 5 4 4
Wind_Speed
4 7 9 7 8 8 8 9 9 9 9 9 9 9 10 10 10 10 10 9 9 9 9 9 9 9 8 8 7 7 6 7 7 8 7 7 7 6 6 6 6 6 9
6 8 9 8 9 9 9 9 9 9 9 9 9 9 10 10 10 10 9 9 9 9 9 9 8 8 7 7 6 6 6 6 6 7 7 7 7 7 6 5 2 5 7
7 8 9 9 9 9 9 10 10 9 10 9 9 9 9 9 10 10 10 9 9 9 9 9 8 7 7 6 6 5 5 5 6 6 7 6 8 8 6 6 6 6 7
8 8 9 9 9 9 9 9 10 10 10 9 9 9 9 9 10 10 9 9 9 9 9 8 7 6 6 5 5 5 5 5 5 6 5 4 6 8 7 6 6 6 6
8 8 10 8 9 9 9 9 9 10 9 9 9 9 9 9 9 9 9 8 8 8 8 7 6 6 5 5 5 4 4 5 5 6 3 3 4 7 7 6 6 6 6
9 8 11 8 8 8 9 9 9 9 9 9 9 9 9 9 9 8 8 8 8 7 7 6 6 5 4 4 4 4 4 4 7 3 3 3 4 7 7 6 6 6 6
9 8 11 9 8 8 8 8 8 8 8 9 9 9 8 9 8 7 7 7 7 7 6 6 5 4 4 3 3 4 4 5 3 3 3 3 5 7 6 6 6 6 6
8 8 10 10 8 8 7 8 8 8 8 8 8 8 8 8 8 7 7 7 6 6 5 5 4 3 3 2 3 4 5 7 4 3 3 4 5 6 6 6 5 6 5
7 7 8 9 9 9 8 7 7 7 7 7 7 7 7 7 7 6 6 6 5 4 4 4 3 3 2 2 2 3 4 6 3 2 3 4 7 6 6 6 5 6 6
6 7 7 7 7 6 8 9 7 7 6 6 6 6 6 6 7 6 6 6 4 4 4 3 3 2 3 3 3 3 5 7 3 3 2 5 7 6 5 5 5 6 6
6 5 6 6 7 6 6 8 7 7 6 6 6 6 4 4 5 6 6 5 4 3 3 3 2 2 3 5 4 4 6 2 2 2 2 7 5 5 5 4 5 5 6
6 5 5 5 5 5 4 4 3 4 5 3 3 3 3 3 2 3 7 4 4 4 4 3 2 4 6 3 5 6 2 1 2 2 4 6 5 5 4 4 5 6 6
5 5 5 5 4 4 3 3 2 2 2 3 3 2 2 2 2 2 3 5 5 5 4 5 5 2 1 2 1 1 0 0 1 1 5 6 4 4 4 4 5 5 6
5 4 4 4 4 3 2 2 2 2 2 2 2 1 2 1 1 1 1 1 2 2 1 1 1 1 1 1 1 1 0 0 1 1 4 6 4 4 4 4 4 5 5
4 4 4 3 4 4 3 1 2 2 1 2 2 1 0 1 1 1 1 1 1 1 2 1 1 1 0 1 0 0 1 1 1 1 3 6 5 4 3 3 4 4 4
4 4 4 3 4 4 3 2 1 1 1 1 1 2 0 0 0 1 2 1 1 1 1 0 1 1 0 1 1 1 1 0 1 0 1 5 6 4 3 3 3 4 4
4 4 4 3 4 4 3 3 2 2 1 1 1 1 1 1 0 1 1 1 1 1 2 1 1 1 1 1 0 0 0 0 1 0 0 1 4 6 5 4 3 4 4
4 5 4 3 4 4 3 2 2 1 1 1 1 1 1 0 0 1 0 1 1 0 1 1 1 0 0 0 0 0 0 1 1 1 1 1 1 2 6 5 4 4 4
5 5 5 4 4 4 4 3 2 1 1 1 1 0 1 1 1 1 0 1 1 0 0 1 1 1 0 1 1 1 1 1 1 1 1 1 1 1 1 7 6 4 5
6 5 5 6 5 4 4 3 2 2 2 1 1 0 1 1 1 1 1 1 2 0 0 1 1 1 1 1 2 0 1 0 0 1 1 1 1 1 1 2 4 5 6
6 7 6 6 6 4 3 3 3 3 2 2 1 1 1 1 1 1 1 0 2 0 1 1 2 2 2 1 2 1 2 2 1 0 0 0 1 1 1 1 1 1 4
7 7 7 7 7 6 4 3 2 2 2 2 1 1 2 1 2 2 1 1 0 1 1 1 2 3 1 1 2 2 1 3 2 1 1 1 1 1 1 1 1 1 2
8 8 7 7 7 6 5 4 3 3 3 3 3 2 2 2 2 1 1 2 1 3 1 1 2 2 2 1 1 2 2 1 0 2 1 1 1 0 1 1 2 1 2
8 8 7 7 7 6 6 5 5 4 3 2 2 1 2 2 2 2 2 2 2 2 1 3 1 2 3 2 0 1 2 2 3 1 2 2 1 1 1 1 1 2 2
8 7 7 7 7 7 6 6 5 4 3 2 2 2 3 2 3 2 2 2 2 2 2 2 1 3 2 3 2 1 1 2 3 3 1 1 1 1 2 2 1 1 1
7 7 7 7 7 7 7 6 5 5 4 3 3 2 3 2 3 3 3 2 3 2 2 2 2 2 2 2 3 2 2 2 2 2 2 2 2 1 1 1 2 2 2
Wind_Direction
94 99 104 109 113 120 120 117 120 121 118 121 123 124 127 127 127 128 127 123 122 123 122 118 119 117 117 121 124 127 132 132 134 135 137 139 138 136 137 146 167 143 127
96 98 102 101 106 112 116 116 121 124 122 125 124 124 125 127 127 128 130 125 120 117 115 111 110 110 114 118 122 124 126 128 133 139 150 155 144 142 143 147 149 115 135
97 101 109 101 103 105 110 114 118 123 124 124 125 125 125 126 126 126 125 123 119 116 112 110 111 115 118 117 118 121 126 132 138 157 191 169 139 141 143 142 135 138 143
96 99 98 100 103 105 107 110 113 117 119 120 122 125 125 124 123 125 124 124 123 119 116 116 117 118 118 117 116 116 126 139 157 200 194 138 136 132 141 143 142 146 148
98 101 100 104 104 105 107 110 110 111 113 116 119 122 124 124 124 127 127 124 122 121 121 122 122 120 119 119 123 129 135 150 186 212 139 136 126 132 145 146 146 149 151
103 102 100 100 101 102 104 108 109 111 112 115 117 121 122 121 122 126 126 123 121 124 126 127 130 126 124 125 131 142 151 181 210 148 145 154 131 137 150 153 154 155 159
100 99 103 102 102 103 104 107 112 112 112 114 116 117 118 122 123 119 123 121 123 128 130 133 138 134 134 146 160 165 181 220 219 130 145 142 120 139 157 166 170 169 172
101 100 106 113 107 104 106 106 110 111 113 115 116 118 118 121 122 120 119 120 121 126 132 135 135 133 141 151 165 177 202 239 188 159 149 125 122 154 163 173 182 182 183
102 102 105 117 121 121 112 107 106 106 111 116 116 117 118 119 121 121 117 111 112 117 125 132 134 136 143 138 148 170 202 241 232 154 152 129 143 170 177 182 194 195 194
105 103 106 108 108 119 121 114 108 107 110 116 116 117 126 137 136 137 135 115 114 114 119 120 126 137 151 144 137 160 200 226 188 142 132 121 150 177 187 193 194 195 195
111 110 114 114 116 114 110 115 126 126 121 137 133 135 164 150 136 149 102 112 116 116 116 113 121 156 188 167 160 180 217 208 127 106 100 113 156 180 192 195 193 196 198
127 127 121 116 112 115 112 117 120 120 115 116 106 129 131 109 113 110 119 134 137 141 148 141 153 205 228 168 159 198 208 146 149 139 114 132 170 190 196 201 202 202 203
138 133 128 123 128 125 118 124 114 109 117 129 117 137 120 130 136 142 151 155 161 176 171 156 190 209 57 55 11 208 79 231 126 117 114 144 183 202 206 209 211 208 210
143 140 130 131 124 112 108 119 135 132 133 116 124 186 132 128 136 121 143 123 160 148 130 160 128 85 41 58 359 319 107 281 78 88 119 153 187 209 219 219 210 209 212
152 152 134 130 132 141 137 159 126 127 128 125 119 118 135 158 159 144 118 130 160 137 164 157 102 96 79 161 247 317 358 22 54 65 125 154 183 203 222 213 201 203 199
162 156 147 158 147 155 156 161 158 155 144 142 133 114 267 295 106 168 157 154 146 166 79 121 111 157 190 38 319 4 318 29 93 172 163 154 172 182 197 199 194 195 193
164 158 165 171 155 164 166 178 169 185 162 152 128 140 243 243 138 232 147 180 123 135 146 177 178 197 198 174 140 64 108 8 74 122 252 223 168 169 178 188 193 189 194
170 161 176 182 164 167 175 198 191 190 155 187 186 164 186 342 207 246 146 106 89 171 150 154 218 234 46 265 97 334 55 117 159 196 190 200 221 162 162 169 184 187 191
181 176 178 189 182 178 176 187 192 179 199 233 222 220 165 184 191 236 110 65 236 234 246 274 86 294 264 289 244 186 221 186 175 169 161 190 172 198 169 151 170 183 187
182 184 187 188 186 187 186 183 189 199 198 208 209 201 230 200 185 267 180 125 277 257 302 341 333 282 290 289 296 348 259 277 267 115 218 156 151 171 198 151 175 175 179
185 185 191 195 187 194 196 201 192 199 200 200 201 170 211 241 196 244 301 150 276 342 319 295 278 230 250 291 274 252 174 166 157 169 200 82 110 89 62 143 220 204 169
189 189 191 193 190 200 194 207 213 221 219 196 202 177 228 228 243 212 248 264 265 248 231 266 263 285 285 240 292 281 225 167 182 149 180 167 135 135 159 176 176 206 242
194 194 194 192 191 200 197 202 194 193 211 196 193 197 213 228 233 283 258 281 275 262 241 265 259 263 294 290 316 309 306 351 341 150 147 132 162 233 238 175 169 173 224
197 193 192 190 193 194 198 206 210 216 215 203 213 197 212 220 224 231 246 245 265 279 260 256 206 271 276 283 204 278 314 335 303 254 176 155 188 226 261 256 184 171 203
195 192 184 186 192 195 204 205 217 222 216 205 207 193 236 217 223 230 230 246 251 264 281 290 276 281 276 289 294 272 253 233 260 279 291 289 242 226 221 220 225 211 192
187 187 180 179 188 191 199 205 213 220 224 220 223 215 226 216 221 220 222 231 244 257 246 254 254 239 276 292 293 293 283 287 290 283 279 273 279 257 239 229 222 213 205